Location: Orange Harbor Mobile Home Park
(26.6923°N, 81.7937°W)
Time: 11:09:01
(UTC+00:00)

ISS - Visible Passes

Search period start: 25 June 2021 00:00
Search period end: 05 July 2021 00:00
Orbit: 419 x 422 km, 51.6° (Epoch: 25 June)

Date Brightness Start Highest point End Pass type
(mag) Time Alt. Az. Time Alt. Az. Time Alt. Az.
25 Jun -1.8 08:23:44 25° E 08:23:44 25° E 08:25:43 10° ENE visible
25 Jun -1.5 09:57:27 10° WNW 09:59:33 15° NW 10:01:38 10° N visible
26 Jun -2.3 09:11:30 24° WNW 09:12:15 26° NW 09:15:09 10° NNE visible
27 Jun -2.1 08:26:12 33° N 08:26:12 33° N 08:28:19 10° NNE visible
28 Jun -0.4 07:40:50 13° NE 07:40:50 13° NE 07:41:12 10° NE visible
29 Jun -1.1 08:28:23 14° NNW 08:28:23 14° NNW 08:29:39 10° N visible
30 Jun -0.4 07:42:55 12° NNE 07:42:55 12° NNE 07:43:12 10° NNE visible
